Strona główna
METAR-TAF:

METAR-TAF

Lotnisko :

Eastern Slopes Regional Airport

Fryeburg, Maine, Stany Zjednoczone

Szerokość geograficzna: 43-59-21N, Długość geograficzna: 070-57-01W, wysokość: 137 m

Aktualna obserwacja pogody

Raport powstał 56 minut temu, godzina 21:54 UTC
Cisza
Temperatura 2°C
Wilgotność 64%
Ciśnienie 1017 hPa
Widzialność: 16.1 km
bezchmurnie

METAR: KIZG 162154Z AUTO 00000KT 10SM CLR 02/M04 A3003 RMK AO2 SLP178 T00221044

czas: 17:50 (22:50 UTC)


TAF: brakujący

Obserwacja i prognoza pogody dla ponad 4000 lotnisk (raport METAR i TAF).

Dostępne stacje oznaczono żółtymi i czerwonymi punktami na mapie.

Najedź kursorem aby zobaczyć nazwę stacji.

Kliknij aby zobaczyć obserwacje i prognozy pogody.

Aby zmienić mapę: kliknij na zielony przycisk z czarnym krzyżykiem, aby powiększyć; na zielony przycisk z myślnikiem, aby pomniejszyć; na zielone strzałki, aby przejść do map sąsiednich.


METAR-TAF: